www.pogodaiklimat.ru

Погода и климат >> Архив погоды >> Италия >> Ольвия


ПОГОДА в Ольвии

  • Прогноз погоды в Ольвии
  • Монитор погоды в Ольвии

АРХИВ ПОГОДЫ в Ольвии

Время (UTC), дата Ветер
(напр.,м/с)
 
Видим.   Явления Облачность Т
(С)
Тd
(С)
f
(%)
Тe
(С)
Тes
(С)
Комфортность P
(гПа)
Po
(гПа)
Тmin
(С)
Tmax
(С)
R
(мм)
R24
(мм)
S
(см)
12 10.07 З 9 20 км ясно +32.3 +16.9 40 +36 +38 очень
душно
1009.3 1007.9 2
15 10.07 З 8 20 км 3/3 900 м
[Cu hum]
+31.9 +16.0 38 +35 +36 очень
душно
1010.2 1008.8
18 10.07 З 6 20 км ясно +30.1 +16.7 45 +34 +34 очень
душно
1010.5 1009.1 +33.2 2
21 10.07 З 4 20 км ясно +25.7 +17.7 61 +30 +30 душно 1012.5 1011.1
00 11.07 З 7 н/о н/о +23.6 +17.9 70 +28 +28 душно 1012.8 1011.5
03 11.07 ЮЗ 3 н/о н/о +22.0 +18.1 79 +27 +27 душно 1012.8 1011.4
06 11.07 ЮЗ 5 20 км 3/3 750 м
[Cu med, cong]
+24.2 +18.2 69 +29 +30 душно 1013.2 1011.9 +21.3
09 11.07 СВ 4 20 км ясно +28.4 +20.4 62 +35 +45 очень
душно
1013.5 1012.2
12 11.07 СВ 6 н/о н/о +29.7 +12.9 36 +31 +31 жарко 1013.0 1011.6
15 11.07 СВ 5 15 км ясно +29.8 +15.4 42 +33 +37 душно 1012.7 1011.3
18 11.07 В 3 15 км ясно +28.6 +15.6 45 +31 +32 жарко 1012.4 1011.0 +30.8
21 11.07 З 2 12 км ясно +25.1 +16.8 60 +29 +29 душно 1012.8 1011.5
00 12.07 ЮЗ 3 12 км ясно +23.8 +16.4 63 +27 +27 жарко 1013.1 1011.7
03 12.07 ЮЗ 5 н/о н/о +23.6 +16.2 63 +27 +27 жарко 1012.3 1010.9
06 12.07 ЮЗ 9 20 км ясно +25.8 +17.0 58 +30 +30 душно 1012.6 1011.2 +22.3
09 12.07 ЮЗ 8 25 км ясно +31.5 +16.7 41 +35 +37 очень
душно
1012.4 1011.1
12 12.07 З 9 20 км ясно +34.3 +11.1 24 +34 +36 очень
жарко
1012.1 1010.7
15 12.07 З 10 20 км ясно +34.2 +9.2 22 +33 +33 жарко 1011.4 1010.0
18 12.07 З 7 20 км ясно +30.7 +10.4 29 +31 +31 жарко 1011.9 1010.6 +35.5
21 12.07 З 6 20 км ясно +27.3 +12.2 39 +29 +29 жарко 1013.0 1011.7
00 13.07 ЮЗ 4 20 км ясно +24.9 +15.6 56 +28 +28 жарко 1012.7 1011.3
03 13.07 ЮЗ 3 20 км ясно +23.9 +15.8 60 +27 +27 жарко 1010.8 1009.5
06 13.07 ЮЗ 11 20 км ясно +26.7 +15.7 51 +30 +30 душно 1009.9 1008.5 +23.7
09 13.07 З 11 20 км ясно +32.6 +15.7 36 +35 +35 душно 1009.9 1008.5
12 13.07 З 10 20 км ясно +34.5 +10.6 23 +34 +35 очень
жарко
1009.7 1008.4
15 13.07 СЗ 9 15 км ясно +32.3 +11.5 28 +32 +33 жарко 1008.7 1007.4
18 13.07 СЗ 7 15 км ясно +28.7 +15.5 45 +32 +32 душно 1009.2 1007.8 +35.4
21 13.07 ЮЗ 5 20 км ясно +25.2 +17.2 61 +29 +29 душно 1010.8 1009.4
00 14.07 ЮЗ 7 20 км ясно +24.1 +18.1 69 +28 +28 душно 1010.9 1009.6
06 14.07 ЮЗ 2 15 км ясно +23.4 +18.1 72 +29 +32 душно 1010.3 1008.9 +20.8
09 14.07 СВ 4 н/о н/о +29.4 +20.0 57 +36 +36 очень
душно
1010.4 1009.1
12 14.07 В 7 20 км 5/0 900 м
[Ac trans]
+31.2 +15.5 39 +34 +39 душно 1008.7 1007.4
15 14.07 ЮВ 6 20 км 5/1 900 м
[Cu hum Ac trans]
+31.3 +16.2 40 +34 +36 душно 1007.6 1006.2
18 14.07 В 3 20 км 4/1 900 м
[Cb calv]
+28.1 +18.0 54 +33 +33 очень
душно
1007.2 1005.9 +32.7
21 14.07 н/о н/о +26.2 +21.3 74 1007.6 1006.2
00 15.07 ЮЗ 3 15 км ясно +23.8 +21.8 89 +31 +31 очень
душно
1006.4 1005.0
03 15.07 ЮЗ 2 15 км ясно +21.1 +17.1 78 +25 +25 комфорт 1005.6 1004.3
06 15.07 ЮЗ 4 20 км 3/1 900 м
[Cu hum Ac trans]
+24.6 +18.9 71 +30 +31 очень
душно
1005.8 1004.4 +20.2
09 15.07 З 6 20 км 4/4 900 м
[Cu hum]
+30.2 +12.1 33 +31 +34 жарко 1005.0 1003.7
12 15.07 ЮЗ 9 20 км 3/3 900 м
[Cu hum]
+32.1 +9.4 25 +31 +33 жарко 1004.5 1003.2
15 15.07 З 8 20 км 3/3 900 м
[Cu hum]
+29.3 +10.5 31 +29 +30 жарко 1005.4 1004.0
18 15.07 ЮЗ 10 20 км ясно +26.0 +13.5 46 +28 +28 жарко 1005.1 1003.8 +32.8
21 15.07 З 6 12 км слаб. дождь 8/5 900 м
[Sc diur, vesp Ac trans]
+21.5 +17.4 77 +26 +26 душно 1007.2 1005.8
00 16.07 З 4 12 км слаб. дождь 8/5 900 м
[Sc diur, vesp Ac trans]
+19.3 +18.3 94 +21 +21 комфорт 1006.7 1005.4 10
03 16.07 СВ 2 15 км 5/5 900 м
[Sc diur, vesp]
+21.6 +19.4 87 +27 +27 душно 1007.6 1006.3
06 16.07 С 5 20 км {дождь} 4/4 900 м
[Cu hum]
+23.0 +18.3 75 +29 +30 очень
душно
1010.9 1009.6 +18.6 12
09 16.07 С 7 20 км 4/4 900 м
[Cu hum]
+25.1 +16.4 59 +29 +31 душно 1012.3 1011.0
12 16.07 СВ 9 20 км 3/3 900 м
[Cu med, cong]
+27.8 +14.9 45 +30 +32 жарко 1013.0 1011.6
15 16.07 С 5 20 км ясно +28.7 +14.6 42 +31 +36 жарко 1013.2 1011.8
18 16.07 С 5 20 км ясно +27.0 +16.6 53 +31 +31 душно 1013.4 1012.0 +29.1
21 16.07 ЮЗ 2 12 км ясно +22.5 +16.6 69 +27 +27 душно 1014.6 1013.2
00 17.07 штиль 0 н/о н/о +20.7 +16.0 74 +24 +24 комфорт 1014.5 1013.2
03 17.07 З 2 н/о н/о +20.0 +17.2 84 +24 +24 комфорт 1014.0 1012.6
06 17.07 ЮЗ 5 30 км ясно +22.1 +16.6 71 +26 +28 душно 1014.2 1012.8 +18.9
09 17.07 30 км ясно +29.0 +13.2 38 1014.1 1012.7

 

Местоположение метеостанции Ольвия (Италия): широта 40.90 долгота 9.52 высота над уровнем моря 13 м.

В архиве по умолчанию представлена погода в Ольвии за последнюю неделю. Архивные данные за месяц целиком и за предыдущие месяцы, начиная с января 2011 года, Вы можете получить, выбрав интересующий диапазон дат из раскрывающегося списка и нажав кнопку "Ввод!".


*Определитесь, кто Вы:
робот инопланетянин человек

Внимание! Время в таблицах - всемирное. Для получения местного времени необходимо прибавить поправку, которая равна 1 ч.

Смотрите также архив погоды в соседних городах и на ближайших метеорологических станциях:

Погода на Мысе Пертюзато (Франция) (60 км)
Погода в Фигари (Франция) (75 км)
Погода в Альгеро (Италия) (109 км)
Погода на Капо Беллависто (Италия) (109 км)
Погода в Соленцаре (Франция) (114 км)
Погода на Капо Кацция (Италия) (120 км)
Погода в Аяччо (Франция) (128 км)
Погода в Ла Парате (Франция) (136 км)
Погода в Алистро (Франция) (152 км)
Погода на Капо Фраска (Италия) (156 км)

Пояснения к столбцам:

Ветер - указаны скорость ветра в м/с - средняя за 10 мин, порывы в срок и между сроками (в фигурных скобках) и направление, откуда дует ветер: С - северный, СВ - северо-восточный, В - восточный, ЮВ - юго-восточный, Ю - южный, ЮЗ - юго-западный, З - западный, СЗ - северо-западный.
Видимость - горизонтальная дальность видимости в метрах или километрах. При видимости от 1 до 10 км при отсутствии осадков обычно наблюдается дымка, при ухудшении видимости до 1 км и менее - туман. В сухую погоду видимость может ухудшаться дымом, пылью или мглою.
Явления - указаны атмосферные явления, наблюдавшиеся в срок или в последний час перед сроком; фигурными скобками обозначены явления, наблюдавшиеся между сроками (за 1-3 часа до срока); квадратными скобками обозначены град или гололедные отложения с указанием их диаметра в мм.
Облачность - указаны через наклонную черту общая и нижняя облачность в баллах и высота нижней границы облаков в метрах; квадратными скобками обозначены формы облаков: Ci - перистые, Cs - перисто-слоистые, Cc - перисто-кучевые, Ac - высококучевые, As - высокослоистые, Sc - слоисто-кучевые, Ns - слоисто-дождевые, Cu - кучевые, Cb - кучево-дождевые. Подробнее классификацию облаков см. в Атласе облаков (PDF).
T - Температура воздуха - температура, измеренная на высоте 2 м над землей.
Td - Температура точки росы - температура, при понижении до которой содержащийся в воздухе водяной пар достигнет насыщения.
f - Относительная влажность воздуха - влажноcть воздуха, измеренная на высоте 2 м над землей.
Te - Эффективная температура - температура, которую ощущает одетый по сезону человек в тени. Характеристика душности погоды. При расчете учитывается влияние влажности воздуха и скорости ветра на теплоощущения человека.
Tes - Эффективная температура на солнце - температура, которую ощущает человек, с поправкой на солнечный нагрев. Характеристика знойности погоды. Зависит от высоты солнца над горизонтом, облачности и скорости ветра. Ночью, в пасмурную погоду, а также при ветре 12 м/с и более поправка равна нулю.
P - Атмосферное давление - приведенное к уровню моря атмосферное давление.
Po - Атмосферное давление - измеренное на уровне метеостанции атмосферное давление.
Tmin - Минимальная температура - минимум температуры воздуха на высоте 2 м над землей.
Tmax - Максимальная температура - максимум температуры воздуха на высоте 2 м над землей.
R - Количество осадков - Количество выпавших осадков за период времени, мм. При наведении курсора мыши на число - период времени, за который выпало указанное количество осадков.
R24 - Количество осадков - Количество выпавших осадков за 24 часа, мм.
S - Снежный покров - Высота снежного покрова, см. При наведении курсора мыши на число - состояние снежного покрова и степень покрытия местности в баллах.